Wind_Speed
4 4 4 5 5 4 4 4 4 4 4 4 4 4 4 4 3 2 1 1 1 2 2 2 3 3 2 2 3 2 2 3 3 3 4 3 2 2 4 5 5 5 5
5 5 5 5 5 5 5 5 5 5 5 4 4 4 4 3 3 2 1 0 1 1 2 2 2 2 3 3 3 2 2 2 2 3 3 2 2 2 4 5 5 4 4
6 6 6 6 5 5 5 5 5 5 5 5 5 4 4 4 3 2 2 1 1 1 1 2 2 1 3 3 3 2 1 1 2 2 2 2 2 4 5 5 5 4 3
6 6 6 6 6 6 5 5 5 6 6 6 5 5 4 4 4 3 3 3 2 1 2 1 1 2 2 1 1 1 1 1 1 1 1 2 2 4 4 4 5 4 3
7 7 6 6 6 6 6 6 6 6 6 6 5 5 5 5 5 4 4 4 4 3 2 2 2 2 2 1 1 1 1 1 1 1 1 2 2 3 4 4 4 3 2
8 8 8 7 7 7 7 6 7 7 7 6 6 6 6 5 5 5 4 4 4 3 3 2 2 2 2 2 2 1 0 1 1 1 2 2 2 4 3 3 3 3 2
8 7 7 7 8 8 8 7 8 7 7 7 6 6 6 6 6 5 5 4 3 3 3 3 3 3 3 2 2 2 1 1 2 2 2 2 2 3 4 4 3 3 3
8 8 8 8 9 9 9 8 8 8 7 7 7 7 7 7 6 6 5 5 4 4 3 3 2 3 3 3 3 2 2 2 2 2 2 3 3 3 4 4 3 3 3
9 9 8 9 10 10 10 9 9 9 9 8 8 8 7 7 7 6 6 6 5 5 5 4 3 3 4 3 2 2 3 2 2 2 3 4 4 4 5 4 4 5 4
10 10 10 10 10 10 10 10 10 10 10 9 9 9 8 8 7 7 7 7 7 7 6 5 5 5 4 4 4 4 3 3 3 3 3 4 5 5 6 5 6 6 6
11 11 11 11 11 11 11 11 11 11 11 10 10 9 9 8 8 8 8 7 7 8 7 7 6 6 6 5 5 5 4 4 4 4 4 4 5 5 6 6 6 7 7
12 12 13 12 12 13 12 12 12 12 12 11 11 10 10 9 8 8 8 8 8 8 8 8 7 7 7 7 6 6 6 5 5 5 5 6 6 6 6 7 7 7 8
14 14 14 14 14 14 14 13 12 13 13 12 11 11 10 10 10 9 8 9 8 8 8 8 8 8 8 7 7 7 7 6 6 5 6 6 6 6 7 7 7 8 8
14 15 15 14 14 14 14 14 13 13 13 12 12 12 11 11 11 11 10 9 10 10 10 10 8 8 8 8 8 8 8 7 7 6 6 7 7 7 7 7 7 8 8
14 15 15 15 15 14 14 14 13 13 13 13 13 13 12 12 12 11 11 11 10 10 10 10 9 9 9 9 8 8 8 7 7 6 7 7 7 7 7 7 7 7 8
15 16 16 16 16 16 16 16 15 15 14 14 14 14 14 13 12 12 11 11 11 11 11 10 10 9 9 9 9 8 8 8 8 8 8 8 8 8 7 7 8 8 8
16 16 17 17 16 16 17 17 16 16 16 15 15 15 15 14 13 12 12 12 12 13 12 12 11 10 10 10 10 9 9 8 8 9 9 9 9 9 9 9 8 8 9
17 17 18 18 17 17 17 17 17 17 16 16 16 16 15 15 15 14 13 13 13 13 13 13 12 12 12 12 11 11 9 9 9 9 10 10 10 9 10 10 10 9 10
18 19 19 19 18 18 17 17 17 18 17 17 17 16 16 16 15 14 14 14 14 14 14 14 14 13 13 13 13 12 11 10 10 10 11 11 10 10 11 10 11 10 10
19 19 20 19 19 19 19 18 18 18 17 18 18 17 16 17 16 15 15 15 15 15 15 15 15 14 15 14 14 13 12 12 11 11 12 12 12 12 12 11 11 11 11
20 21 21 20 19 19 20 19 19 19 18 19 18 18 17 17 17 16 16 16 16 15 15 16 16 16 15 15 15 15 15 14 13 13 13 13 13 12 12 12 12 12 12
21 21 21 21 20 20 20 20 20 20 20 19 19 18 17 17 17 16 16 16 16 16 16 17 16 16 16 17 17 16 16 15 14 14 14 14 14 13 12 13 13 13 13
22 23 23 22 22 22 22 21 21 20 20 20 19 18 17 17 18 17 17 17 17 17 17 17 17 17 18 18 17 17 16 14 14 14 14 14 14 13 13 13 14 14 15
24 23 23 24 23 23 22 22 21 21 21 20 19 18 18 18 18 19 19 19 18 18 17 17 17 18 18 18 18 17 17 16 15 14 14 14 14 14 14 14 14 15 15
24 24 24 23 23 22 22 22 22 21 20 20 20 19 19 19 19 19 19 19 19 18 17 17 17 17 17 18 18 17 17 16 15 14 14 13 14 14 14 15 15 15 15
23 24 23 23 22 22 22 22 22 21 20 20 19 19 19 19 19 19 20 20 19 18 17 17 17 17 17 18 17 17 17 16 15 15 14 14 14 14 14 15 16 16 16
Wind_Direction
340 338 337 335 339 339 337 332 330 325 318 315 317 316 313 321 331 331 344 40 109 148 153 141 134 134 132 134 149 145 132 139 134 141 139 145 157 183 192 189 185 184 183
327 327 332 334 337 336 333 326 324 321 314 312 312 311 312 320 329 328 300 271 101 133 152 166 145 132 150 151 154 148 137 142 137 144 145 163 184 188 189 182 173 171 184
321 323 326 331 333 333 330 328 326 322 319 316 310 305 307 311 313 314 289 274 262 179 169 171 154 162 156 155 168 173 171 160 145 139 153 172 176 168 170 176 174 171 183
317 319 320 323 328 327 323 324 325 318 317 316 311 304 300 299 298 296 289 281 275 251 232 212 191 191 171 152 144 147 180 190 173 178 199 202 188 165 168 177 174 167 167
311 313 314 315 320 322 317 317 320 317 312 312 310 304 299 296 297 295 289 282 280 272 245 229 225 211 217 212 195 166 150 194 213 243 262 230 203 183 180 183 181 189 199
308 308 308 312 315 316 312 308 309 310 311 306 305 302 299 296 297 297 287 280 275 267 254 240 236 233 234 241 241 241 275 232 250 267 271 239 197 185 192 190 191 196 205
309 307 310 314 316 312 307 307 305 306 309 307 303 301 297 294 291 290 282 275 268 262 258 249 249 245 238 237 240 250 255 248 241 269 270 247 203 190 206 206 210 220 226
310 312 317 318 315 313 311 309 308 306 305 303 300 298 297 292 286 282 280 274 269 263 247 241 244 248 246 239 240 259 272 264 250 260 256 236 224 216 221 216 218 224 226
310 312 314 315 314 312 311 309 308 307 303 300 296 292 291 288 281 278 274 272 269 263 247 241 246 245 242 239 251 265 272 272 274 274 257 247 250 240 233 236 237 239 244
313 312 317 318 317 313 309 304 305 306 305 299 294 289 288 288 280 274 272 270 268 263 252 244 244 248 256 261 264 267 277 277 285 283 270 256 251 250 245 247 253 260 264
310 310 311 313 313 310 307 306 305 305 305 300 292 288 288 285 279 274 272 270 268 264 255 247 253 257 259 263 265 264 266 269 273 274 275 269 258 254 248 252 258 262 268
308 308 310 311 311 310 306 304 304 304 303 298 294 289 286 282 278 275 271 266 266 264 258 255 256 260 262 263 263 263 263 265 270 274 279 277 269 260 256 256 258 260 264
306 308 308 310 309 308 304 300 303 303 299 296 292 290 287 280 276 273 271 264 260 259 260 260 258 257 260 264 262 264 266 267 273 278 278 275 273 266 261 258 257 259 262
305 307 306 306 306 305 304 302 300 300 298 293 291 289 285 282 276 270 271 267 257 259 261 263 263 260 259 264 261 263 265 267 268 277 278 276 275 272 265 260 257 259 265
302 303 304 304 301 302 305 304 300 299 298 293 289 285 281 278 275 271 269 267 263 260 263 263 259 259 260 263 263 265 266 270 268 273 279 278 282 280 277 271 263 265 272
299 301 303 303 302 301 300 300 299 298 297 294 288 283 280 279 273 269 267 266 264 260 260 260 260 261 262 264 263 264 268 271 268 270 275 280 283 281 278 277 269 270 274
295 298 301 301 302 301 299 298 297 297 295 294 289 283 280 277 276 272 269 263 264 259 259 259 260 260 261 262 261 262 264 267 271 270 272 276 280 275 274 276 276 274 276
292 295 298 297 298 299 300 299 295 292 292 292 290 285 279 277 277 273 269 265 265 260 259 258 257 258 258 260 259 260 262 266 272 272 272 277 278 274 271 273 273 276 276
289 291 292 294 294 295 297 298 294 290 289 289 287 285 279 276 277 274 268 266 264 263 259 258 258 259 257 258 259 261 261 263 268 274 275 275 276 274 272 273 272 274 276
286 287 288 289 290 292 295 296 293 288 288 288 287 285 279 276 275 274 270 266 266 263 260 258 258 258 257 258 260 260 261 261 266 270 274 275 274 276 272 270 270 270 272
283 285 286 287 288 290 293 294 292 289 288 288 287 285 281 275 274 272 267 266 264 265 265 260 258 259 258 258 257 257 258 260 265 268 272 273 272 272 271 269 271 274 272
280 281 283 285 287 289 291 292 291 289 288 288 285 282 281 275 272 270 266 267 265 265 268 261 258 257 257 257 256 256 258 260 260 263 268 271 271 272 273 272 271 274 275
277 277 279 282 285 287 287 290 291 289 289 287 285 280 277 274 270 268 267 268 268 266 266 262 258 258 256 257 257 259 261 262 259 262 263 267 268 269 270 275 274 273 274
276 276 277 279 282 284 286 289 290 289 288 285 283 280 275 273 270 268 268 267 266 267 264 262 261 260 256 256 256 258 260 258 260 262 262 263 265 266 268 273 277 278 278
277 277 277 277 278 281 285 287 288 287 286 284 284 281 277 274 271 269 266 266 266 264 262 261 260 261 259 258 257 257 255 255 262 262 262 266 266 267 269 271 274 278 280
277 277 278 278 277 280 283 284 285 284 285 285 284 282 277 275 272 269 268 265 265 262 261 259 259 260 260 262 260 255 253 254 259 262 265 267 267 269 271 272 275 278 280
Height
5889 5888 5888 5888 5887 5886 5886 5885 5884 5884 5883 5882 5881 5880 5879 5878 5877 5876 5875 5874 5872 5872 5872 5872 5873 5874 5875 5875 5876 5876 5877 5878 5878 5878 5879 5880 5880 5881 5882 5883 5884 5885 5886
5889 5888 5888 5887 5887 5886 5886 5885 5884 5883 5882 5882 5881 5880 5879 5878 5877 5876 5875 5874 5873 5873 5873 5874 5874 5875 5875 5876 5877 5877 5877 5878 5879 5879 5879 5880 5881 5881 5882 5883 5884 5885 5886
5889 5888 5888 5887 5886 5886 5885 5885 5884 5883 5882 5881 5881 5880 5879 5878 5877 5876 5876 5875 5874 5874 5874 5874 5875 5875 5876 5877 5877 5877 5878 5878 5879 5879 5880 5881 5881 5882 5882 5883 5884 5885 5886
5889 5888 5887 5887 5886 5885 5885 5884 5883 5883 5882 5881 5880 5879 5879 5878 5877 5876 5876 5875 5875 5875 5875 5875 5875 5876 5876 5877 5877 5878 5878 5878 5879 5880 5880 5881 5881 5882 5883 5884 5885 5885 5886
5888 5887 5887 5886 5886 5885 5884 5884 5883 5882 5881 5880 5879 5879 5878 5878 5877 5876 5875 5875 5875 5875 5875 5875 5875 5876 5876 5877 5877 5878 5878 5878 5879 5880 5880 5881 5881 5882 5883 5884 5885 5885 5886
5887 5886 5886 5886 5885 5884 5884 5883 5882 5881 5881 5880 5879 5878 5878 5877 5877 5876 5876 5875 5875 5875 5875 5876 5876 5876 5876 5877 5877 5878 5878 5879 5879 5879 5880 5880 5881 5882 5883 5884 5885 5885 5886
5887 5885 5885 5885 5885 5884 5883 5882 5881 5881 5880 5879 5878 5878 5877 5877 5876 5876 5876 5875 5875 5875 5875 5876 5876 5876 5876 5877 5877 5878 5878 5879 5879 5879 5880 5880 5880 5881 5882 5883 5884 5885 5886
5886 5885 5884 5884 5883 5883 5882 5881 5881 5880 5879 5878 5878 5877 5877 5876 5876 5876 5875 5875 5875 5875 5875 5876 5876 5876 5876 5877 5877 5878 5878 5878 5879 5879 5879 5880 5881 5881 5882 5883 5884 5885 5886
5885 5884 5884 5883 5883 5882 5881 5880 5880 5879 5878 5877 5877 5876 5876 5875 5875 5875 5875 5875 5875 5875 5875 5875 5876 5876 5876 5877 5877 5877 5878 5878 5878 5879 5879 5879 5880 5881 5882 5883 5884 5885 5885
5884 5883 5883 5882 5881 5881 5880 5880 5879 5878 5877 5876 5876 5875 5875 5874 5874 5874 5874 5874 5874 5874 5875 5875 5875 5876 5876 5876 5876 5877 5877 5878 5878 5878 5879 5879 5880 5880 5881 5882 5883 5883 5884
5883 5882 5882 5881 5880 5879 5879 5878 5877 5876 5876 5875 5874 5874 5874 5873 5873 5873 5873 5873 5873 5873 5874 5874 5875 5875 5875 5876 5876 5876 5877 5877 5878 5878 5878 5879 5879 5880 5880 5881 5881 5882 5883
5882 5881 5880 5879 5878 5878 5877 5876 5875 5875 5874 5873 5873 5873 5872 5872 5872 5872 5872 5872 5872 5872 5872 5873 5873 5874 5875 5875 5875 5876 5876 5877 5877 5877 5877 5878 5878 5878 5879 5879 5880 5881 5881
5880 5879 5878 5877 5876 5876 5875 5874 5873 5873 5872 5871 5871 5870 5870 5870 5870 5870 5870 5870 5870 5870 5871 5872 5872 5873 5874 5874 5874 5874 5875 5876 5876 5876 5876 5877 5877 5877 5877 5878 5879 5879 5880
5879 5877 5877 5876 5875 5874 5873 5872 5871 5871 5870 5869 5868 5868 5868 5868 5868 5867 5868 5869 5869 5869 5870 5870 5871 5871 5872 5873 5873 5873 5873 5874 5875 5875 5875 5875 5875 5876 5876 5877 5877 5878 5878
5877 5875 5875 5874 5873 5871 5871 5870 5869 5868 5867 5867 5866 5866 5865 5865 5866 5865 5866 5866 5867 5867 5868 5868 5869 5870 5871 5871 5871 5872 5872 5873 5873 5874 5874 5874 5874 5874 5875 5875 5875 5876 5876
5875 5873 5873 5872 5871 5870 5869 5868 5867 5866 5865 5864 5864 5863 5863 5863 5863 5863 5864 5864 5865 5865 5866 5867 5867 5868 5869 5869 5870 5870 5871 5871 5872 5872 5873 5873 5873 5873 5873 5874 5874 5874 5874
5872 5871 5870 5869 5868 5867 5866 5865 5864 5863 5862 5861 5861 5860 5860 5860 5860 5861 5861 5862 5862 5863 5863 5864 5865 5866 5867 5868 5868 5869 5869 5869 5870 5870 5871 5871 5871 5871 5872 5872 5872 5872 5872
5869 5868 5867 5866 5865 5864 5863 5862 5861 5860 5859 5859 5858 5857 5857 5857 5857 5857 5858 5859 5859 5860 5861 5862 5863 5864 5865 5865 5866 5867 5867 5867 5868 5868 5869 5869 5869 5870 5870 5870 5870 5870 5870
5866 5865 5864 5863 5862 5861 5860 5859 5858 5857 5857 5856 5855 5854 5854 5854 5854 5854 5855 5856 5857 5858 5858 5859 5860 5861 5862 5863 5863 5864 5865 5865 5866 5866 5867 5867 5867 5868 5868 5868 5868 5868 5868
5863 5862 5861 5860 5859 5858 5857 5856 5855 5853 5853 5853 5852 5851 5851 5851 5851 5851 5852 5853 5854 5854 5855 5856 5857 5858 5859 5860 5861 5861 5862 5863 5863 5864 5864 5864 5865 5865 5865 5865 5865 5865 5865
5859 5858 5857 5856 5855 5854 5853 5852 5851 5850 5849 5849 5848 5848 5847 5847 5847 5848 5848 5849 5850 5851 5852 5853 5853 5854 5855 5856 5857 5858 5859 5859 5860 5861 5861 5861 5862 5862 5862 5862 5862 5862 5862
5854 5853 5853 5852 5851 5850 5849 5848 5847 5846 5845 5844 5844 5844 5844 5843 5844 5844 5845 5846 5847 5848 5848 5849 5850 5851 5852 5853 5853 5854 5855 5856 5856 5857 5857 5858 5858 5859 5859 5859 5859 5859 5859
5849 5849 5848 5847 5847 5846 5845 5843 5842 5842 5841 5841 5841 5840 5840 5840 5840 5840 5841 5842 5843 5844 5844 5845 5846 5847 5848 5849 5849 5850 5851 5852 5853 5853 5854 5854 5855 5855 5855 5856 5856 5856 5856
5844 5844 5843 5843 5842 5841 5840 5839 5838 5837 5837 5836 5836 5835 5835 5835 5836 5836 5837 5838 5839 5840 5840 5841 5842 5842 5843 5844 5845 5846 5847 5848 5849 5849 5850 5850 5851 5851 5852 5852 5852 5852 5852
5838 5838 5838 5837 5837 5836 5835 5834 5833 5833 5832 5831 5831 5831 5831 5831 5831 5832 5833 5833 5834 5835 5836 5836 5837 5838 5839 5840 5841 5842 5843 5844 5845 5846 5847 5847 5847 5848 5848 5848 5849 5848 5848
5833 5833 5833 5832 5832 5832 5831 5830 5829 5828 5827 5827 5826 5826 5826 5826 5827 5827 5828 5829 5830 5830 5831 5832 5833 5834 5834 5835 5836 5838 5839 5840 5841 5842 5843 5844 5844 5844 5844 5845 5845 5844 5844